Location: *
(58.7167°N, 26.1833°E)
Time: 17:54:51
(UTC+00:00)

Cosmos 1980 - Pass Details

Date: 25 August 2019
Orbit: 840 x 846 km, 71.0° (Epoch: 14 September)

Event Time Altitude Azimuth Distance (km) Brightness Sun altitude
Rises 22:11:36 0° 321° (NW) 3,418 7.7 -20.7°
Reaches altitude 10° 22:14:03 10° 321° (NW) 2,479 6.8 -20.7°
Maximum altitude 22:19:46 83° 235° (SW) 859 3.6 -20.7°
Enters shadow 22:22:07 37° 151° (SSE) 1,290 4.2 -20.7°
